Terug naar catalogus

MMS 1

ActiefWetenschapHEO
NORAD 40482·PAYLOAD·🇺🇸 United States

Gelanceerd Mar 13, 2015 vanaf Cape Canaveral Space Force Station

Loading…

Volgende Passages (komende 24 uur)

TLE

VersSource: Space-Track

Epoch: Sep 14, 2026, 16:00 UTC

1 40482U 15011A   26257.66671296 -.00001854  00000-0  00000-0 0  9990
2 40482  72.9529 347.7738 8256880 169.3950  66.2300  0.28334835  1412

Volg MMS 1 in realtime met AllMySat

Download on the App Store